Flag for U.S.A. Weather past 2 weeks in Salinas, California, U.S.A.

Now
57 °F

Overcast.


Feels Like: 56 °F
Forecast: 53 / 67 °F
Wind: 6 mph from West

Location: Salinas Municipal Airport

Current Time: May 27, 2015 at 1:21:13 AM

Latest Report: May 27, 2015 at 12:53 AM


Visibility: 10 mi

Pressure: 30.05 "Hg

Humidity: 72%

Dew point: 48 °F

Location of SalinasLocation

Historic Weather in Salinas — Graph

°F

Salinas temperature yesterday

Maximum temperature yesterday: 65 °F (at 2:53 PM)
Minimum temperature yesterday: 55 °F (at 3:53 AM)
Average temperature yesterday: 59 °F

Past Weeks' High & Low Weather Summary

 TemperatureHumidityPressure
High67 °F (May 21, 1:53 PM)88% (May 22, 5:02 AM)30.17 "Hg (May 22, 5:02 AM)
Low50 °F (May 13, 4:53 AM)40% (May 13, 12:53 PM)29.83 "Hg (May 14, 4:53 PM)
Average58 °F69%30.03 "Hg
* Reported May 11 11:53 PM — May 26 11:53 PM, Salinas, Weather by CustomWeather, © 2015

Note: Actual official high and low records may vary slightly from our data, if they occured in-between our weather recording intervals... More about our weather records

Advertising

Salinas weather history for previous 24 hours

 ConditionsComfort  
Time TempWeatherWind HumidityBarometerVisibility
11:53 PM
Tue, May 26
58 °FOvercast.9 mph70%30.06 "Hg10 mi
10:53 PM58 °FOvercast.6 mph70%30.05 "Hg10 mi
9:53 PM59 °FOvercast.7 mph67%30.05 "Hg10 mi
8:53 PM59 °FOvercast.7 mph69%30.05 "Hg10 mi
7:53 PM59 °FOvercast.12 mph69%30.03 "Hg10 mi
6:53 PM60 °FOvercast.13 mph67%30.03 "Hg10 mi
5:53 PM62 °FPartly sunny.14 mph62%30.03 "Hg10 mi
4:53 PM63 °FScattered clouds.13 mph60%30.03 "Hg10 mi
3:53 PM64 °FPassing clouds.14 mph58%30.03 "Hg10 mi
2:53 PM65 °FPassing clouds.14 mph56%30.03 "Hg10 mi
1:53 PM64 °FPartly sunny.14 mph61%30.04 "Hg10 mi
12:53 PM64 °FPartly sunny.10 mph58%30.05 "Hg10 mi
11:53 AM62 °FOvercast.5 mph62%30.06 "Hg10 mi
10:53 AM59 °FOvercast.No wind72%30.06 "Hg10 mi
9:53 AM59 °FOvercast.3 mph69%30.06 "Hg10 mi
8:53 AM57 °FOvercast.3 mph72%30.06 "Hg10 mi
7:53 AM56 °FOvercast.3 mph81%30.06 "Hg10 mi
6:53 AM55 °FMostly cloudy.8 mph87%30.04 "Hg10 mi
5:53 AM55 °FOvercast.5 mph83%30.02 "Hg10 mi
5:00 AM55 °FMostly cloudy.6 mph88%30.00 "Hg10 mi
3:53 AM55 °FLow clouds.5 mph87%30.02 "Hg9 mi
2:53 AM56 °FOvercast.No wind84%30.03 "Hg9 mi
2:01 AM55 °FFog.No wind88%30.01 "Hg5 mi
Weather by CustomWeather, © 2015

See weather overviewHow to use our weather pages